Regional Weather Roundup
Issued by NWS

Home | Current Version | Previous Version | Text Only | Print | Product List | Glossary Off
Versions: 1 2 3 4 5 6 7 8 9 10 11 12 13 14 15 16 17 18 19 20 21 22 23 24 25 26 27 28 29 30 31 32 33 34 35 36 37 38 39 40 41 42 43 44 45 46 47 48 49 50

000
ASUS43 KDTX 031810
RWRMI
MICHIGAN HOURLY REGIONAL WEATHER ROUNDUP
NATIONAL WEATHER SERVICE DETROIT/PONTIAC MI
200 PM EDT SUN MAY 03 2015

NOTE: "FAIR" INDICATES FEW OR NO CLOUDS BELOW 12,000 FEET WITH NO
SIGNIFICANT WEATHER AND/OR OBSTRUCTION TO VISIBILITY.

MIZ047>049-052>055-059>063-066>070-074>076-081>083-031900-
SOUTHEAST LOWER MICHIGAN

CITY           SKY/WX    TMP DP  RH WIND       PRES   REMARKS
ADRIAN         MOSUNNY   76  43  30 SW15G25   30.05F
6HR MIN TEMP:  52; 6HR MAX TEMP:  76;

ALMA           PTSUNNY   77  39  25 SW15G25   29.98F
ANN ARBOR      SUNNY     78  43  28 SW13      30.04F
BAD AXE        MOSUNNY   77  38  24 SW14G21   29.99F
CARO           MOSUNNY   76  43  30 W3        29.98F
DETROIT CITY   SUNNY     75  44  33 S17       30.03F
6HR MIN TEMP:  59; 6HR MAX TEMP:  76;

DETROIT        MOSUNNY   79  43  27 S16G26    30.04F
6HR MIN TEMP:  58; 6HR MAX TEMP:  79;

FLINT          MOSUNNY   79  41  25 SW13G24   30.01S
6HR MIN TEMP:  60; 6HR MAX TEMP:  79;

GROSSE ILE     SUNNY     72  48  43 S12       30.03F
HILLSDALE      SUNNY     76  41  28 S10       30.05S
6HR MIN TEMP:  60; 6HR MAX TEMP:  77;

HOWELL         SUNNY     77  39  25 SW12G20   30.02S
6HR MIN TEMP:  58; 6HR MAX TEMP:  77;


CITY           SKY/WX    TMP DP  RH WIND       PRES   REMARKS
JACKSON        PTSUNNY   75  43  31 SW12      30.03F
6HR MIN TEMP:  59; 6HR MAX TEMP:  76;

LAMBERTVILLE   SUNNY     77  37  24 SW13G20   30.05F
LANSING        MOSUNNY   78  43  28 SW15      30.01F
6HR MIN TEMP:  58; 6HR MAX TEMP:  78;

LAPEER         FAIR      77  35  21 SW10G17   30.00F
MASON          SUNNY     76  39  26 SW10G22   30.01F
MONROE         SUNNY     75  45  33 S17G23    30.03F
MT. CLEMENS    MOSUNNY   78  44  29 SW16      30.01F
6HR MIN TEMP:  61; 6HR MAX TEMP:  78;

PONTIAC        MOSUNNY   76  40  27 SW12G23   30.02F
6HR MIN TEMP:  57; 6HR MAX TEMP:  77;

PORT HOPE        N/A     78  40  25 VRB7G18   29.96F
6HR MIN TEMP:  62; 6HR MAX TEMP:  78;

PORT HURON     MOSUNNY   77  43  29 S12G22    30.02S
TRI CITIES     SUNNY     80  40  23 SW22G28   29.97F
6HR MIN TEMP:  58; 6HR MAX TEMP:  80;

MIDLAND        FAIR      80  40  23 SW18      29.96F
TROY           SUNNY     78  39  24 S14G24    30.04F
SAGINAW HB     SUNNY     79  37  22 SW18      29.98F
$$
MIZ043>046-050>051-056>058-064>065-071>073-077>080-031900-
SOUTHWEST LOWER MICHIGAN

CITY           SKY/WX    TMP DP  RH WIND       PRES   REMARKS
BATTLE CREEK   MOSUNNY   77  45  32 SW16G26   30.02F
6HR MIN TEMP:  56; 6HR MAX TEMP:  77;

BENTON HARBOR  PTSUNNY   75  46  35 SW15G23   29.99S
6HR MIN TEMP:  57; 6HR MAX TEMP:  77;

BIG RAPIDS     CLOUDY    75  42  29 W21       29.96F
6HR MIN TEMP:  53; 6HR MAX TEMP:  75;

COLDWATER      PTSUNNY   74  41  30 SW13G18   30.03F
6HR MIN TEMP:  57; 6HR MAX TEMP:  76;

FREMONT        FAIR      76  36  23 SW20G26   29.97S
HOLLAND        MOSUNNY   76  43  30 SW23G29   29.99F
6HR MIN TEMP:  62; 6HR MAX TEMP:  78;

GRAND RAPIDS   PTSUNNY   77  44  30 SW15G25   29.99F
6HR MIN TEMP:  59; 6HR MAX TEMP:  78;

IONIA          CLOUDY    77  41  28 W18G24    29.99S
KALAMAZOO      MOSUNNY   79  45  29 S12G23    30.01F
6HR MIN TEMP:  56; 6HR MAX TEMP:  79;

LUDINGTON      PTSUNNY   76  42  29 SW17      29.94F
6HR MIN TEMP:  61; 6HR MAX TEMP:  76;

MARSHALL       CLOUDY    75  43  32 SW10      30.02F
MOUNT PLEASANT CLOUDY    76  39  26 SW14      29.96F
6HR MIN TEMP:  61; 6HR MAX TEMP:  79;

MUSKEGON       PTSUNNY   74  41  30 S21G29    29.98F
6HR MIN TEMP:  56; 6HR MAX TEMP:  74;

SOUTH HAVEN    PTSUNNY   77  39  25 W17G23    29.98F
$$
MIZ016>042-031900-
NORTHERN LOWER MICHIGAN

CITY           SKY/WX    TMP DP  RH WIND       PRES   REMARKS
ALPENA         MOSUNNY   80  41  24 SW14G22   29.91F
6HR MIN TEMP:  59; 6HR MAX TEMP:  81;

BEAVER ISLAND  MOSUNNY   70  45  41 SW16G32   29.90S
6HR MIN TEMP:  58; 6HR MAX TEMP:  70;

BELLAIRE       MOSUNNY   77  46  33 S13       29.91F
6HR MIN TEMP:  55; 6HR MAX TEMP:  77;

CADILLAC       PTSUNNY   74  45  35 SW12G22   29.95F
CHARLEVOIX     PTSUNNY   76  49  38 SW14G23   29.93F
FRANKFORT      PTSUNNY   75  33  21 S16G31    29.92F
GAYLORD        PTSUNNY   73  46  38 W17G24    29.93S
6HR MIN TEMP:  57; 6HR MAX TEMP:  74;

GRAYLING       PTSUNNY   73  43  34 S13G18    29.96S
6HR MIN TEMP:  55; 6HR MAX TEMP:  77;

HARBOR SPRINGS CLOUDY    66  47  50 SW3       29.91S
HOUGHTON LAKE  CLOUDY    73  42  32 SW16      29.96F
6HR MIN TEMP:  58; 6HR MAX TEMP:  74;

MANISTEE       PTSUNNY   73  41  31 SW15G21   29.94F
OSCODA         CLOUDY    79  43  27 S16       29.93F
PELLSTON       PTSUNNY   77  49  37 SW16G26   29.90F
6HR MIN TEMP:  64; 6HR MAX TEMP:  77;

ROGERS CITY    PTSUNNY   78  45  30 W7        29.90S
TRAVERSE CITY  PTSUNNY   78  48  34 SW10G20   29.91F
6HR MIN TEMP:  61; 6HR MAX TEMP:  78;

$$
MIZ007>008-015-031900-
EASTERN UPPER MICHIGAN

CITY           SKY/WX    TMP DP  RH WIND       PRES   REMARKS
KINROSS        SUNNY     73  48  40 SW16G25   29.89S
6HR MIN TEMP:  52; 6HR MAX TEMP:  73;

MACKINAC ISLAN PTSUNNY   65  48  53 SW15G25   29.90S
6HR MIN TEMP:  55; 6HR MAX TEMP:  68;

NEWBERRY       MOSUNNY   69  49  48 SW21G30   29.87F
6HR MIN TEMP:  47; 6HR MAX TEMP:  70;

S. S. MARIE    MOSUNNY   76  49  38 SW17G26   29.86S
6HR MIN TEMP:  48; 6HR MAX TEMP:  77;

MUNISING         N/A     56  43  61 NE6       29.79F
6HR MIN TEMP:  50; 6HR MAX TEMP:  76;

$$
MIZ004>006-011>014-085-031900-
CENTRAL UPPER MICHIGAN

CITY           SKY/WX    TMP DP  RH WIND       PRES   REMARKS
MANISTIQUE     PTSUNNY   48  38  69 S14G20    29.88S
ESCANABA       SUNNY     63  45  51 S13G21    29.82F
6HR MIN TEMP:  54; 6HR MAX TEMP:  66;

MENOMINEE      MOSUNNY   75  52  43 SW14G21   29.82F
6HR MIN TEMP:  57; 6HR MAX TEMP:  75;

SAWYER-GWINN   CLOUDY    75  48  38 SW7G16    29.79F
$$
MIZ001>003-009>011-084-031900-
WESTERN UPPER MICHIGAN

CITY           SKY/WX    TMP DP  RH WIND       PRES   REMARKS
IRON MOUNTAIN  SUNNY     80  51  36 S17G23    29.78F
6HR MIN TEMP:  56; 6HR MAX TEMP:  80;

HOUGHTON       PTSUNNY   75  53  46 S10       29.74F
6HR MIN TEMP:  58; 6HR MAX TEMP:  75; 6HR PCP:  0.10;

COPPER HARBOR    N/A     73  54  51 SW8G22    29.73S
6HR MIN TEMP:  57; 6HR MAX TEMP:  73; 6HR PCP:  0.06;

IRONWOOD       MOSUNNY   77  52  41 SW16      29.73S
6HR MIN TEMP:  61; 6HR MAX TEMP:  77;

$$

ABBREVIATIONS USED IN REMARKS
   TC - TEMPERATURE IN CELSIUS
  WCI - WIND CHILL INDEX
   HX - HEAT INDEX
  VSB - VISIBILITY



USA.gov is the U.S. government's official web portal to all federal, state and local government web resources and services.